Williamtown Air Force Base, Australia

1:49 PM AEDT on February 14, 2016 (GMT +1100)
Williamtown Military

Weather History for YWLM - September, 2013

Change the Weather History Date:

Saturday, September 21, 2013

  Actual Average Record
Temperature  
Mean Temperature 58 °F -  
Max Temperature 68 °F - - ()
Min Temperature 48 °F - - ()
Degree Days  
Heating Degree Days 7    
Growing Degree Days 8 (Base 50)    
Moisture  
Dew Point 42 °F    
Average Humidity 56    
Maximum Humidity 93    
Minimum Humidity 25    
Precipitation  
Precipitation 0.00 in - - ()
Sea Level Pressure  
Sea Level Pressure 29.93 in    
Wind  
Wind Speed 10 mph ()    
Max Wind Speed 17 mph    
Max Gust Speed -    
Visibility 6.2 miles    
Events      
T = Trace of Precipitation, MM = Missing Value Source: Averaged Metar Reports

Daily Weather History Graph

Daily Weather History Graph

Search for Another Location

Airport or City:

Trip Planner

Search our weather history database for the weather conditions in past years. The results will help you decide how hot, cold, wet, or windy it might be!

Date:

Astronomy

Sep. 21, 2013 Rise Set
Actual Time 5:44 AM AEST 5:48 PM AEST
Civil Twilight 5:19 AM AEST 6:12 PM AEST
Nautical Twilight 4:50 AM AEST 6:41 PM AEST
Astronomical Twilight 4:22 AM AEST 7:10 PM AEST
Moon 7:40 PM AEST (9/21) 6:25 AM AEST (9/21)
Length of Visible Light 12h 53m
Length of Day
12h 04m
Full, 97% of the Moon is Illuminated
Sep 21
Full
Sep 27
Last Quarter
Oct 5
New
Oct 12
First Quarter
Oct 19
Full

Hourly Weather History & Observations

Time (AEST) Temp. Dew Point Humidity Pressure Visibility Wind Dir Wind Speed Gust Speed Precip Events Conditions
12:00 AM 54 °F 38 °F 43% 29.93 in - West 10.4 mph - -  
12:00 AM 53.6 °F 37.4 °F 54% 29.92 in 6.2 mi West 10.4 mph - N/A   Unknown
12:30 AM 53.6 °F 37.4 °F 54% 29.92 in 6.2 mi West 10.4 mph - N/A   Unknown
1:00 AM 53 °F 38 °F 47% 29.92 in - West 10.4 mph - -  
1:00 AM 53.6 °F 39.2 °F 58% 29.92 in 6.2 mi West 10.4 mph - N/A   Unknown
1:30 AM 51.8 °F 39.2 °F 62% 29.92 in 6.2 mi WNW 10.4 mph - N/A   Unknown
2:00 AM 50.0 °F 39.2 °F 66% 29.92 in 6.2 mi WNW 9.2 mph - N/A   Unknown
2:30 AM 51.8 °F 39.2 °F 62% 29.89 in 6.2 mi WNW 13.8 mph - N/A   Unknown
3:00 AM 53 °F 38 °F 45% 29.91 in - WNW 13.8 mph - -  
3:00 AM 51.8 °F 37.4 °F 58% 29.89 in 6.2 mi WNW 13.8 mph - N/A   Unknown
3:30 AM 51.8 °F 39.2 °F 62% 29.89 in 6.2 mi WNW 13.8 mph - N/A   Unknown
4:00 AM 51 °F 38 °F 51% 29.91 in - WNW 12.7 mph - -  
4:00 AM 51.8 °F 39.2 °F 62% 29.89 in 6.2 mi WNW 12.7 mph - N/A   Unknown
4:30 AM 50.0 °F 39.2 °F 66% 29.92 in 6.2 mi WNW 12.7 mph - N/A   Unknown
5:00 AM 50.0 °F 39.2 °F 66% 29.92 in 6.2 mi WNW 11.5 mph - N/A   Unknown
5:30 AM 50.0 °F 39.2 °F 66% 29.92 in 6.2 mi WNW 16.1 mph - N/A   Unknown
6:00 AM 50 °F 39 °F 55% 29.95 in - WNW 15.0 mph - -  
6:00 AM 50.0 °F 39.2 °F 66% 29.92 in 6.2 mi WNW 15.0 mph - N/A   Unknown
6:30 AM 51.8 °F 39.2 °F 62% 29.95 in 6.2 mi WNW 15.0 mph - N/A   Unknown
7:00 AM 54 °F 39 °F 47% 29.95 in - WNW 13.8 mph - -  
7:00 AM 55.4 °F 39.2 °F 54% 29.95 in 6.2 mi WNW 13.8 mph - N/A   Unknown
7:30 AM 57.2 °F 39.2 °F 51% 29.95 in 6.2 mi WNW 15.0 mph - N/A   Unknown
8:00 AM 59.0 °F 39.2 °F 48% 29.98 in 6.2 mi WNW 17.3 mph - N/A   Unknown
8:30 AM 62.6 °F 39.2 °F 42% 29.98 in 6.2 mi West 12.7 mph - N/A   Unknown
9:00 AM 63 °F 39 °F 29% 29.99 in - WNW 10.4 mph - -  
9:00 AM 62.6 °F 39.2 °F 42% 29.98 in 6.2 mi WNW 10.4 mph - N/A   Unknown
9:30 AM 64.4 °F 41.0 °F 42% 29.98 in 6.2 mi West 8.1 mph - N/A   Unknown
10:00 AM 66.2 °F 39.2 °F 37% 29.95 in 6.2 mi SW 6.9 mph - N/A   Unknown
10:30 AM 66.2 °F 39.2 °F 37% 29.95 in 6.2 mi WSW 8.1 mph - N/A   Unknown
11:00 AM 68.0 °F 37.4 °F 33% 29.95 in 6.2 mi SSE 13.8 mph - N/A   Unknown
11:30 AM 68.0 °F 39.2 °F 35% 29.95 in 6.2 mi SSE 13.8 mph - N/A   Unknown
12:00 PM 67 °F 41 °F 27% 29.94 in - SSE 12.7 mph - -  
12:00 PM 68.0 °F 41.0 °F 37% 29.92 in 6.2 mi SSE 12.7 mph - N/A   Scattered Clouds
12:30 PM 68.0 °F 41.0 °F 37% 29.92 in 6.2 mi SE 11.5 mph - N/A   Unknown
1:00 PM 68 °F 41 °F 25% 29.92 in - SSE 11.5 mph - -  
1:00 PM 68.0 °F 41.0 °F 37% 29.92 in 6.2 mi SSE 11.5 mph - N/A   Unknown
1:30 PM 68.0 °F 41.0 °F 37% 29.89 in 6.2 mi SE 10.4 mph - N/A   Unknown
2:00 PM 68.0 °F 41.0 °F 37% 29.89 in 6.2 mi SSE 12.7 mph - N/A   Unknown
2:30 PM 68.0 °F 41.0 °F 37% 29.89 in 6.2 mi SSE 13.8 mph - N/A   Unknown
3:00 PM 68.0 °F 42.8 °F 40% 29.89 in 6.2 mi SSE 13.8 mph - N/A   Unknown
3:30 PM 68.0 °F 41.0 °F 37% 29.89 in 6.2 mi SSE 12.7 mph - N/A   Unknown
4:00 PM 66.2 °F 42.8 °F 43% 29.89 in 6.2 mi SSE 11.5 mph - N/A   Unknown
4:30 PM 66.2 °F 42.8 °F 43% 29.89 in 6.2 mi SE 11.5 mph - N/A   Unknown
5:00 PM 64.4 °F 44.6 °F 49% 29.89 in 6.2 mi SE 10.4 mph - N/A   Unknown
5:30 PM 62.6 °F 46.4 °F 55% 29.89 in 6.2 mi ESE 8.1 mph - N/A   Unknown
6:00 PM 60 °F 48 °F 54% 29.91 in - ESE 5.8 mph - -  
6:00 PM 60.8 °F 48.2 °F 63% 29.89 in 6.2 mi ESE 5.8 mph - N/A   Unknown
6:30 PM 55.4 °F 48.2 °F 77% 29.92 in 6.2 mi ENE 1.2 mph - N/A   Unknown
7:00 PM 54 °F 48 °F 73% 29.94 in - NNE 5.8 mph - -  
7:00 PM 53.6 °F 48.2 °F 82% 29.92 in 6.2 mi NNE 5.8 mph - N/A   Unknown
7:30 PM 53.6 °F 48.2 °F 82% 29.92 in 6.2 mi NNE 3.5 mph - N/A   Unknown
8:00 PM 51.8 °F 48.2 °F 88% 29.95 in 6.2 mi Calm Calm - N/A   Unknown
8:30 PM 51.8 °F 46.4 °F 82% 29.95 in 6.2 mi Calm Calm - N/A   Unknown
9:00 PM 52 °F 47 °F 76% 29.96 in - North 4.6 mph - -  
9:00 PM 51.8 °F 46.4 °F 82% 29.95 in 6.2 mi North 4.6 mph - N/A   Unknown
9:30 PM 50.0 °F 46.4 °F 87% 29.95 in 6.2 mi Calm Calm - N/A   Unknown
10:00 PM 52 °F 48 °F 82% 29.96 in - NNE 4.6 mph - -  
10:00 PM 51.8 °F 48.2 °F 88% 29.95 in 6.2 mi NNE 4.6 mph - N/A   Unknown
10:30 PM 50.0 °F 46.4 °F 87% 29.95 in 6.2 mi NNE 3.5 mph - N/A   Unknown
11:00 PM 50.0 °F 46.4 °F 87% 29.95 in 6.2 mi Calm Calm - N/A   Unknown
11:30 PM 48.2 °F 46.4 °F 93% 29.95 in 6.2 mi Calm Calm - N/A   Unknown